This demonstration page uses our WeatherBlox Daily Observations layout. Learn more.

Left ArrowRight Arrow

31.84235, -102.49876

Hourly Observations for July 24, 2022

Temp ( °F °C ) Dew Point ( °F °C ) Humidity (%) Winds ( mph kmh ) Pressure ( in mb ) Visibility ( mi km ) Precip ( " mm )
12:53 am 00:53 Clear 85 29.4 54 12.2 35 35 SSE 14 22 29.87 1012 10 16 0.00 0.00
1:53 am 01:53 Clear 84 28.9 55 12.8 37 37 S 12 19 29.87 1012 10 16 0.00 0.00
2:53 am 02:53 Clear 83 28.3 56 13.3 40 40 SSE 10 17 29.88 1012 10 16 0.00 0.00
3:53 am 03:53 Clear 82 27.8 56 13.3 41 41 SSE 15 24 29.87 1012 10 16 0.00 0.00
4:53 am 04:53 Clear 80 26.7 57 13.9 45 45 SSE 12 19 29.88 1012 10 16 0.00 0.00
5:53 am 05:53 Clear 79 26.1 61 16.1 54 54 SSE 12 19 29.89 1012 10 16 0.00 0.00
6:53 am 06:53 Clear 78 25.6 63 17.2 60 60 SSE 10 17 29.90 1013 10 16 0.00 0.00
7:53 am 07:53 Sunny 78 25.6 64 17.8 62 62 SSE 13 20 29.92 1013 10 16 0.00 0.00
8:53 am 08:53 Sunny 79 26.1 65 18.3 62 62 SSE 17 28 29.92 1013 10 16 0.00 0.00
9:53 am 09:53 Sunny 82 27.8 66 18.9 58 58 SSE 15 24 29.93 1013 10 16 0.00 0.00
10:53 am 10:53 Sunny 85 29.4 66 18.9 53 53 S 18 30 29.93 1014 10 16 0.00 0.00
11:53 am 11:53 Sunny 87 30.6 66 18.9 50 50 S 14 22 29.94 1014 10 16 0.00 0.00
12:53 pm 12:53 Sunny 89 31.7 64 17.8 43 43 SE 13 20 29.92 1013 10 16 0.00 0.00
1:53 pm 13:53 Sunny 92 33.3 61 16.1 36 36 SE 13 20 29.89 1012 10 16 0.00 0.00
2:53 pm 14:53 Sunny 94 34.4 60 15.6 32 32 E 9 15 29.87 1012 10 16 0.00 0.00
3:53 pm 15:53 Partly Cloudy 95 35 59 15 30 30 E 12 19 29.85 1011 10 16 0.00 0.00
4:53 pm 16:53 Mostly Sunny 97 36.1 57 13.9 26 26 S 14 22 29.82 1010 10 16 0.00 0.00
5:53 pm 17:53 Mostly Sunny 97 36.1 55 12.8 24 24 SE 15 24 29.81 1009 10 16 0.00 0.00
6:53 pm 18:53 Sunny 97 36.1 54 12.2 24 24 SSE 16 26 29.80 1009 10 16 0.00 0.00
7:53 pm 19:53 Mostly Sunny 95 35 54 12.2 25 25 SSE 14 22 29.80 1009 10 16 0.00 0.00
8:53 pm 20:53 Clear 93 33.9 54 12.2 27 27 SSE 14 22 29.82 1010 10 16 0.00 0.00
9:53 pm 21:53 Clear 91 32.8 54 12.2 28 28 SSE 17 28 29.83 1010 10 16 0.00 0.00
10:53 pm 22:53 Clear 89 31.7 54 12.2 30 30 SSE 16 26 29.85 1011 10 16 0.00 0.00
11:53 pm 23:53 Clear 88 31.1 54 12.2 31 31 SSE 14 22 29.87 1012 10 16 0.00 0.00

Powered by AerisWeather